Regional Weather Roundup
Issued by NWS

Home | Current Version | Previous Version | Graphics & Text | Print | Product List | Glossary Off
Versions: 1 2 3 4 5 6 7 8 9 10 11 12 13 14 15 16 17 18 19 20 21 22 23 24 25 26 27 28 29 30 31 32 33 34 35 36 37 38 39 40 41 42 43 44 45 46 47 48 49 50

000
ASUS43 KTOP 212308
RWRKS

WEATHER ROUNDUP FOR KANSAS
NATIONAL WEATHER SERVICE GOODLAND KS
600 PM CDT MON AUG 21 2017

NOTE:  "FAIR" INDICATES FEW OR NO CLOUDS BELOW 12,000 FEET WITH NO
SIGNIFICANT WEATHER AND/OR OBSTRUCTIONS TO VISIBILITY.

KSZ001>006-013>018-027>032-041>047-220000-
NORTHWEST KANSAS

CITY           SKY/WX    TMP DP  RH WIND       PRES   REMARKS
GOODLAND       CLOUDY    87  66  49 N9        30.00S
HAYS           MOSUNNY   91  67  44 SW18      29.93S
HILL CITY      CLOUDY    93  64  38 S9        29.92F
RUSSELL        PTSUNNY   88  63  43 S17G25    29.92S
$$

KSZ061>065-074>080-084>089-220000-
SOUTHWEST KANSAS

CITY           SKY/WX    TMP DP  RH WIND       PRES   REMARKS
DODGE CITY     SUNNY     86  62  44 SW24G33   29.99R
ELKHART          N/A     84  68  58 S8          N/A
GARDEN CITY    MOSUNNY   85  66  53 SW22      29.99S
GREAT BEND     CLOUDY    88  67  49 S21       29.95S
LIBERAL        SUNNY     84  67  56 SW21G28   30.04S
PRATT          CLOUDY    83  66  56 S14       29.99F
$$

KSZ066>073-081>083-090>101-220000-
SOUTHEAST KANSAS

CITY           SKY/WX    TMP DP  RH WIND       PRES   REMARKS
CHANUTE        SUNNY     90  75  61 S13       30.00S HX 100
COFFEYVILLE    MOSUNNY   90  76  63 S9        29.99S HX 101
HUTCHINSON     CLOUDY    83  72  69 S7        29.96F
MEDICINE LODGE   N/A     89  70  53 SW8       29.96S
NEWTON         CLOUDY    87  71  58 SW8       29.97F
PARSONS        SUNNY     89  75  63 S10       30.01S HX  99
WICHITA INTL   CLOUDY    91  69  48 S12       29.95S HX  96
WICHITA JABRA  PTSUNNY   88  72  58 S13       29.96S
WICHITA MCCONL PTSUNNY   90  70  52 S17       29.96F HX  95
WINFIELD       SUNNY     90  71  53 S14       29.98S HX  96
$$

KSZ007>012-019>026-033>040-048>060-102>105-220000-
NORTHEAST KANSAS

CITY           SKY/WX    TMP DP  RH WIND       PRES   REMARKS
CONCORDIA      CLOUDY    81  75  82 S5        29.95S
EMPORIA        MOSUNNY   89  73  59 S15       29.97S HX  97
LAWRENCE       PTSUNNY   89  77  67 SE12      29.95S HX 101
MANHATTAN      MOSUNNY   88  75  65 S7        29.93S HX  97
MARYSVILLE     CLOUDY    84  72  65 S5        29.95S
OLATHE IND     MOSUNNY   88  75  65 S16       29.98F HX  97
OLATHE EXE     MOSUNNY   81  76  84 E7        29.99F
SALINA         CLOUDY    89  70  53 S9G20     29.94S
TOPEKA BILLARD PTSUNNY   90  75  61 S13G20    29.93F HX 100
TOPEKA FORBES  CLOUDY    90  75  61 S12       29.95S HX 100
$$




USA.gov is the U.S. government's official web portal to all federal, state and local government web resources and services.